N139H KGGI-KISW

Flight info

Callsign N139H
Flight time N/A
Altitude 5000
Route LMONT T251 FALAR
Aircraft A139/L-V/N

Departure

Time N/A
Airport Grinnell Regional Airport (KGGI)

Arrival

Time 2026-04-16 11:40
Airport Alexander Field South Wood County Airport (KISW)
Time Latitude Longitude Altitude Speed Heading
2026-04-16 10:58 43.55925 -91.51653 4963 ft 135 kts 17°
2026-04-16 10:59 43.56735 -91.51022 4964 ft 135 kts 17°
2026-04-16 10:59 43.57405 -91.50102 4969 ft 143 kts 53°
2026-04-16 10:59 43.57783 -91.48872 4923 ft 139 kts 51°
2026-04-16 10:59 43.58166 -91.47622 4920 ft 139 kts 53°
2026-04-16 11:00 43.58529 -91.46395 4950 ft 139 kts 53°
2026-04-16 11:00 43.58892 -91.45154 4963 ft 139 kts 53°
2026-04-16 11:00 43.59251 -91.43922 4958 ft 139 kts 53°
2026-04-16 11:00 43.59610 -91.42678 4965 ft 139 kts 53°
2026-04-16 11:01 43.59971 -91.41428 4965 ft 140 kts 53°
2026-04-16 11:01 43.60327 -91.40180 4967 ft 140 kts 53°
2026-04-16 11:01 43.60684 -91.38936 4964 ft 140 kts 54°
2026-04-16 11:01 43.61042 -91.37678 4970 ft 140 kts 53°
2026-04-16 11:02 43.61402 -91.36414 4964 ft 140 kts 54°
2026-04-16 11:02 43.61755 -91.35180 4958 ft 140 kts 54°
2026-04-16 11:02 43.62109 -91.33932 4970 ft 140 kts 54°
2026-04-16 11:02 43.62468 -91.32673 4972 ft 140 kts 54°
2026-04-16 11:03 43.62822 -91.31424 4977 ft 140 kts 54°
2026-04-16 11:03 43.63177 -91.30178 4977 ft 140 kts 54°
2026-04-16 11:03 43.63885 -91.27678 4971 ft 140 kts 54°
2026-04-16 11:04 43.64243 -91.26421 4966 ft 140 kts 54°
2026-04-16 11:04 43.64593 -91.25177 4974 ft 140 kts 54°
2026-04-16 11:04 43.64949 -91.23926 4964 ft 141 kts 54°
2026-04-16 11:04 43.65303 -91.22666 4967 ft 140 kts 54°
2026-04-16 11:05 43.65657 -91.21416 4961 ft 140 kts 54°
2026-04-16 11:05 43.66014 -91.20151 4962 ft 140 kts 54°
2026-04-16 11:05 43.66368 -91.18902 4958 ft 141 kts 54°
2026-04-16 11:05 43.66720 -91.17648 4963 ft 140 kts 54°
2026-04-16 11:06 43.67076 -91.16380 4963 ft 140 kts 54°
2026-04-16 11:06 43.67426 -91.15136 4960 ft 140 kts 54°
2026-04-16 11:06 43.67779 -91.13883 4962 ft 140 kts 54°
2026-04-16 11:06 43.68136 -91.12621 4956 ft 140 kts 54°
2026-04-16 11:07 43.68489 -91.11361 4961 ft 139 kts 54°
2026-04-16 11:07 43.68837 -91.10127 4951 ft 139 kts 54°
2026-04-16 11:07 43.69186 -91.08882 4943 ft 139 kts 54°
2026-04-16 11:07 43.69537 -91.07628 4941 ft 139 kts 54°
2026-04-16 11:08 43.69892 -91.06370 4936 ft 140 kts 54°
2026-04-16 11:08 43.70241 -91.05123 4941 ft 140 kts 54°
2026-04-16 11:08 43.70588 -91.03880 4953 ft 140 kts 54°
2026-04-16 11:08 43.70943 -91.02617 4954 ft 140 kts 54°
2026-04-16 11:09 43.71292 -91.01370 4953 ft 140 kts 54°
2026-04-16 11:09 43.71645 -91.00109 4950 ft 140 kts 54°
2026-04-16 11:09 43.71994 -90.98860 4954 ft 140 kts 54°
2026-04-16 11:09 43.72344 -90.97607 4967 ft 139 kts 54°
2026-04-16 11:10 43.72690 -90.96370 4965 ft 139 kts 54°
2026-04-16 11:10 43.73042 -90.95115 4966 ft 139 kts 54°
2026-04-16 11:10 43.73386 -90.93881 4967 ft 138 kts 54°
2026-04-16 11:10 43.73736 -90.92626 4953 ft 139 kts 54°
2026-04-16 11:11 43.74083 -90.91384 4953 ft 140 kts 54°
2026-04-16 11:11 43.74432 -90.90138 4955 ft 140 kts 54°
2026-04-16 11:11 43.74783 -90.88872 4964 ft 140 kts 54°
2026-04-16 11:11 43.75131 -90.87621 4966 ft 140 kts 54°
2026-04-16 11:12 43.75481 -90.86359 4964 ft 140 kts 54°
2026-04-16 11:12 43.75835 -90.85088 4970 ft 140 kts 54°
2026-04-16 11:12 43.76185 -90.83833 4983 ft 140 kts 54°
2026-04-16 11:12 43.76535 -90.82571 4996 ft 140 kts 54°
2026-04-16 11:13 43.76887 -90.81305 4996 ft 140 kts 54°
2026-04-16 11:13 43.77235 -90.80050 5002 ft 140 kts 54°
2026-04-16 11:13 43.77591 -90.78773 4997 ft 140 kts 54°
2026-04-16 11:13 43.77938 -90.77518 4995 ft 140 kts 54°
2026-04-16 11:14 43.78293 -90.76241 4995 ft 140 kts 54°
2026-04-16 11:14 43.78647 -90.74966 4997 ft 140 kts 54°
2026-04-16 11:14 43.78994 -90.73710 4995 ft 140 kts 54°
2026-04-16 11:14 43.79346 -90.72434 4993 ft 140 kts 54°
2026-04-16 11:15 43.79696 -90.71173 4993 ft 141 kts 54°
2026-04-16 11:15 43.80047 -90.69900 4997 ft 141 kts 54°
2026-04-16 11:15 43.80400 -90.68622 4989 ft 141 kts 54°
2026-04-16 11:15 43.80750 -90.67358 4990 ft 141 kts 54°
2026-04-16 11:16 43.81104 -90.66076 4992 ft 141 kts 54°
2026-04-16 11:16 43.81452 -90.64807 4997 ft 140 kts 54°
2026-04-16 11:16 43.81808 -90.63525 4989 ft 141 kts 54°
2026-04-16 11:16 43.82157 -90.62259 4996 ft 141 kts 54°
2026-04-16 11:17 43.82506 -90.60985 5002 ft 140 kts 54°
2026-04-16 11:17 43.82856 -90.59721 4992 ft 141 kts 54°
2026-04-16 11:17 43.83202 -90.58460 4998 ft 140 kts 54°
2026-04-16 11:17 43.83553 -90.57189 4982 ft 140 kts 54°
2026-04-16 11:18 43.83899 -90.55932 4983 ft 141 kts 54°
2026-04-16 11:18 43.84250 -90.54654 4982 ft 141 kts 54°
2026-04-16 11:18 43.84598 -90.53381 4992 ft 141 kts 54°
2026-04-16 11:18 43.84945 -90.52111 4898 ft 142 kts 53°
2026-04-16 11:19 43.85306 -90.50812 4769 ft 144 kts 53°
2026-04-16 11:19 43.85661 -90.49529 4641 ft 144 kts 53°
2026-04-16 11:19 43.86024 -90.48213 4514 ft 143 kts 53°
2026-04-16 11:19 43.86378 -90.46926 4378 ft 142 kts 53°
2026-04-16 11:20 43.86731 -90.45644 4236 ft 142 kts 53°
2026-04-16 11:20 43.87082 -90.44368 4098 ft 142 kts 53°
2026-04-16 11:20 43.87435 -90.43079 3950 ft 141 kts 53°
2026-04-16 11:20 43.87778 -90.41826 3817 ft 140 kts 53°
2026-04-16 11:21 43.88124 -90.40559 3687 ft 140 kts 53°
2026-04-16 11:21 43.88474 -90.39285 3537 ft 141 kts 53°
2026-04-16 11:21 43.88702 -90.38450 3456 ft 140 kts 53°
2026-04-16 11:21 43.89164 -90.36758 3289 ft 138 kts 54°
2026-04-16 11:22 43.89394 -90.35924 3203 ft 138 kts 54°
2026-04-16 11:22 43.89844 -90.34264 3013 ft 138 kts 55°
2026-04-16 11:22 43.90075 -90.33413 2968 ft 138 kts 56°
2026-04-16 11:22 43.90411 -90.32165 2954 ft 137 kts 56°
2026-04-16 11:23 43.90849 -90.30540 2968 ft 135 kts 56°
2026-04-16 11:23 43.91181 -90.29314 2978 ft 135 kts 56°
2026-04-16 11:23 43.91399 -90.28509 2989 ft 134 kts 56°
2026-04-16 11:23 43.91845 -90.26878 2978 ft 136 kts 57°
2026-04-16 11:24 43.92180 -90.25639 2992 ft 135 kts 57°
2026-04-16 11:24 43.92510 -90.24422 2991 ft 135 kts 57°
2026-04-16 11:24 43.92844 -90.23189 2988 ft 135 kts 57°
2026-04-16 11:24 43.93174 -90.21970 2987 ft 136 kts 57°
2026-04-16 11:25 43.93510 -90.20747 2997 ft 134 kts 54°
2026-04-16 11:25 43.94095 -90.19775 2960 ft 134 kts 34°
2026-04-16 11:25 43.94751 -90.18861 3006 ft 132 kts 34°
2026-04-16 11:25 43.95410 -90.17947 3007 ft 132 kts 33°
2026-04-16 11:26 43.96056 -90.17059 3008 ft 132 kts 33°
2026-04-16 11:26 43.96710 -90.16164 3002 ft 131 kts 32°
2026-04-16 11:26 43.97373 -90.15264 2992 ft 132 kts 33°
2026-04-16 11:26 43.98032 -90.14372 2990 ft 132 kts 33°
2026-04-16 11:27 43.98686 -90.13484 2988 ft 132 kts 33°
2026-04-16 11:27 43.99340 -90.12596 2989 ft 132 kts 33°
2026-04-16 11:27 43.99997 -90.11705 2988 ft 132 kts 33°
2026-04-16 11:27 44.00653 -90.10814 2988 ft 132 kts 33°
2026-04-16 11:28 44.01307 -90.09927 2986 ft 132 kts 33°
2026-04-16 11:28 44.01971 -90.09026 2983 ft 132 kts 33°
2026-04-16 11:28 44.02636 -90.08122 2979 ft 132 kts 33°
2026-04-16 11:28 44.03296 -90.07226 2977 ft 132 kts 33°
2026-04-16 11:29 44.03945 -90.06343 2984 ft 132 kts 33°
2026-04-16 11:29 44.04610 -90.05440 2985 ft 131 kts 33°
2026-04-16 11:29 44.05270 -90.04544 2982 ft 132 kts 33°
2026-04-16 11:29 44.05925 -90.03657 2982 ft 132 kts 33°
2026-04-16 11:30 44.06583 -90.02760 2985 ft 132 kts 33°
2026-04-16 11:30 44.07229 -90.01882 2990 ft 131 kts 33°
2026-04-16 11:30 44.07893 -90.00979 2974 ft 132 kts 33°
2026-04-16 11:30 44.08544 -90.00090 2985 ft 131 kts 33°
2026-04-16 11:31 44.09199 -89.99200 2987 ft 131 kts 33°
2026-04-16 11:31 44.09846 -89.98317 2988 ft 131 kts 34°
2026-04-16 11:31 44.10507 -89.97414 2981 ft 131 kts 33°
2026-04-16 11:31 44.11151 -89.96533 2989 ft 130 kts 33°
2026-04-16 11:32 44.11795 -89.95654 2990 ft 130 kts 33°
2026-04-16 11:32 44.12447 -89.94764 2984 ft 129 kts 33°
2026-04-16 11:32 44.13092 -89.93884 2971 ft 130 kts 33°
2026-04-16 11:32 44.13738 -89.93002 2978 ft 130 kts 33°
2026-04-16 11:33 44.14387 -89.92117 2982 ft 131 kts 33°
2026-04-16 11:33 44.15041 -89.91222 2985 ft 132 kts 33°
2026-04-16 11:33 44.15703 -89.90318 2995 ft 131 kts 33°
2026-04-16 11:33 44.16356 -89.89427 2984 ft 132 kts 33°
2026-04-16 11:34 44.17046 -89.88621 3027 ft 127 kts 16°
2026-04-16 11:34 44.17937 -89.88402 2958 ft 132 kts 358°
2026-04-16 11:34 44.18849 -89.88297 3000 ft 130 kts 357°
2026-04-16 11:34 44.19749 -89.88216 2969 ft 128 kts 356°
2026-04-16 11:35 44.20644 -89.88145 2975 ft 127 kts 357°
2026-04-16 11:35 44.21533 -89.88077 2983 ft 128 kts 357°
2026-04-16 11:35 44.22431 -89.88013 2999 ft 127 kts 356°
2026-04-16 11:35 44.23317 -89.87952 2985 ft 128 kts 356°
2026-04-16 11:36 44.24207 -89.87891 2991 ft 128 kts 356°
2026-04-16 11:36 44.25103 -89.87830 3001 ft 128 kts 356°
2026-04-16 11:36 44.26002 -89.87769 2957 ft 129 kts 355°
2026-04-16 11:36 44.26903 -89.87710 2781 ft 132 kts 356°
2026-04-16 11:37 44.27807 -89.87402 2609 ft 131 kts
2026-04-16 11:37 44.28685 -89.87042 2437 ft 129 kts
2026-04-16 11:37 44.29541 -89.86682 2282 ft 126 kts
2026-04-16 11:37 44.30356 -89.86338 2164 ft 119 kts
2026-04-16 11:38 44.30874 -89.86124 2071 ft 116 kts
2026-04-16 11:38 44.31903 -89.85693 1872 ft 111 kts
2026-04-16 11:38 44.32392 -89.85482 1737 ft 109 kts
2026-04-16 11:38 44.33069 -89.85194 1570 ft 96 kts
2026-04-16 11:39 44.33866 -89.84858 1348 ft 84 kts 358°
2026-04-16 11:39 44.34417 -89.84637 1245 ft 80 kts
2026-04-16 11:39 44.34928 -89.84388 1160 ft 73 kts 12°
2026-04-16 11:39 44.35223 -89.84232 1074 ft 63 kts
2026-04-16 11:40 44.35593 -89.84070 1010 ft 48 kts 31°
2026-04-16 11:40 44.35835 -89.83936 1014 ft 26 kts 20°
2026-04-16 11:40 44.35973 -89.83865 1015 ft 10 kts 22°
2026-04-16 11:40 44.36034 -89.83834 1016 ft 8 kts 21°
2026-04-16 11:41 44.36079 -89.83810 1017 ft 5 kts 31°
2026-04-16 11:41 44.36084 -89.83762 1017 ft 6 kts 116°
2026-04-16 11:41 44.36066 -89.83704 1016 ft 6 kts 105°
2026-04-16 11:41 44.36064 -89.83641 1015 ft 6 kts 88°
2026-04-16 11:42 44.36066 -89.83581 1014 ft 6 kts 88°
2026-04-16 11:42 44.36068 -89.83521 1013 ft 6 kts 88°
2026-04-16 11:42 44.36069 -89.83461 1013 ft 6 kts 87°
2026-04-16 11:42 44.36071 -89.83401 1013 ft 6 kts 87°
2026-04-16 11:43 44.36073 -89.83342 1013 ft 5 kts 89°
2026-04-16 11:43 44.36073 -89.83297 1013 ft 3 kts 97°
2026-04-16 11:43 44.36071 -89.83263 1013 ft 1 kts 94°
2026-04-16 11:43 44.36068 -89.83249 1013 ft 1 kts 137°
2026-04-16 11:44 44.36064 -89.83255 1013 ft 0 kts 274°